Weather History for Eagle River, WI

Change the Weather History Date:

Saturday, April 19, 2014

  Actual Average Record
Temperature  
Mean Temperature 40 °F -  
Max Temperature 53 °F 49 °F 73 °F (2005)
Min Temperature 28 °F 28 °F 21 °F (2013)
Degree Days  
Heating Degree Days 24    
Moisture  
Dew Point 25 °F    
Average Humidity 57    
Maximum Humidity 77    
Minimum Humidity 32    
Precipitation  
Precipitation 0.01 in - - ()
Sea Level Pressure  
Sea Level Pressure 30.22 in    
Wind  
Wind Speed 7 mph (SSE)    
Max Wind Speed 17 mph    
Max Gust Speed 28 mph    
Visibility 10 miles    
Events Rain    
Averages and records for this station are not official NWS values.
T = Trace of Precipitation, MM = Missing Value Source: NWS Daily Summary

Daily Weather History Graph

Daily Weather History Graph

Search for Another Location

Airport:

Trip Planner

Search our weather history database for the weather conditions in past years. The results will help you decide how hot, cold, wet, or windy it might be!

Date:

Astronomy

Apr. 19, 2014 Rise Set
Actual Time 6:03 AM CDT 7:49 PM CDT
Civil Twilight 5:32 AM CDT 8:21 PM CDT
Nautical Twilight 4:53 AM CDT 8:59 PM CDT
Astronomical Twilight 4:11 AM CDT 9:42 PM CDT
Moon No Moon Rise 9:14 AM CDT (4/19)
Length of Visible Light 14h 48m
Length of Day
13h 45m
Waning Gibbous, 78% of the Moon is Illuminated
Apr 19
Waning Gibbous
Apr 22
Last Quarter
Apr 29
New
May 6
First Quarter
May 14
Full

Hourly Weather History & Observations

Time (CDT) Temp. Windchill Dew Point Humidity Pressure Visibility Wind Dir Wind Speed Gust Speed Precip Events Conditions
12:15 AM 31.5 °F 24.9 °F 22.1 °F 68% 30.35 in 10.0 mi ESE 6.9 mph - N/A   Clear
12:35 AM 31.5 °F 26.8 °F 21.9 °F 68% 30.36 in 10.0 mi SE 4.6 mph - N/A   Scattered Clouds
12:55 AM 31.1 °F 25.4 °F 22.1 °F 69% 30.36 in 10.0 mi ESE 5.8 mph - N/A   Scattered Clouds
1:15 AM 31.1 °F 26.4 °F 22.1 °F 69% 30.36 in 10.0 mi SE 4.6 mph - N/A   Scattered Clouds
1:35 AM 30.9 °F - 22.1 °F 70% 30.36 in 10.0 mi Calm Calm - N/A   Clear
1:55 AM 30.6 °F - 22.1 °F 71% 30.35 in 10.0 mi Calm Calm - N/A   Clear
2:15 AM 30.7 °F - 22.5 °F 71% 30.35 in 10.0 mi Calm Calm - N/A   Clear
2:35 AM 30.7 °F - 22.6 °F 72% 30.36 in 10.0 mi Calm Calm - N/A   Clear
2:55 AM 30.7 °F 24.1 °F 23.0 °F 73% 30.36 in 10.0 mi SE 6.9 mph - N/A   Mostly Cloudy
3:15 AM 30.6 °F 25.8 °F 23.2 °F 74% 30.36 in 10.0 mi SE 4.6 mph - N/A   Mostly Cloudy
3:35 AM 30.6 °F 24.7 °F 23.5 °F 75% 30.36 in 10.0 mi SE 5.8 mph - N/A   Mostly Cloudy
3:55 AM 30.6 °F 23.8 °F 23.4 °F 75% 30.36 in 10.0 mi SE 6.9 mph - N/A   Clear
4:15 AM 30.6 °F 23.8 °F 23.4 °F 75% 30.37 in 10.0 mi SSE 6.9 mph - N/A   Clear
4:55 AM 30.6 °F 27.1 °F 23.4 °F 75% 30.37 in 10.0 mi SSE 3.5 mph - N/A   Clear
5:15 AM 30.2 °F 26.7 °F 23.4 °F 76% 30.37 in 10.0 mi SSE 3.5 mph - N/A   Scattered Clouds
5:35 AM 30.0 °F 24.1 °F 23.2 °F 76% 30.37 in 10.0 mi SE 5.8 mph - N/A   Scattered Clouds
5:55 AM 29.3 °F 21.5 °F 23.0 °F 77% 30.35 in 10.0 mi SE 8.1 mph - N/A   Clear
6:15 AM 29.1 °F 22.1 °F 22.8 °F 77% 30.35 in 10.0 mi SE 6.9 mph - N/A   Clear
6:35 AM 28.9 °F 21.9 °F 22.5 °F 77% 30.34 in 10.0 mi SE 6.9 mph - N/A   Clear
6:55 AM 29.5 °F 21.1 °F 22.6 °F 76% 30.34 in 10.0 mi SE 9.2 mph - N/A   Clear
7:15 AM 29.7 °F 20.7 °F 22.6 °F 75% 30.33 in 10.0 mi SE 10.4 mph - N/A   Clear
7:35 AM 30.2 °F 20.2 °F 22.1 °F 72% 30.32 in 10.0 mi SE 12.7 mph 19.6 mph N/A   Clear
7:55 AM 30.9 °F 22.8 °F 21.6 °F 68% 30.30 in 10.0 mi SE 9.2 mph 16.1 mph N/A   Clear
8:15 AM 32.0 °F 24.2 °F 21.2 °F 64% 30.30 in 10.0 mi SE 9.2 mph 18.4 mph N/A   Clear
8:55 AM 34.7 °F 25.1 °F 20.8 °F 57% 30.28 in 10.0 mi SSE 15.0 mph 20.7 mph N/A   Clear
9:15 AM 36.3 °F 30.1 °F 20.5 °F 53% 30.28 in 10.0 mi SE 8.1 mph 17.3 mph N/A   Clear
9:35 AM 37.8 °F 29.4 °F 19.4 °F 48% 30.28 in 10.0 mi South 13.8 mph 23.0 mph N/A   Clear
9:55 AM 38.8 °F 30.8 °F 19.6 °F 46% 30.28 in 10.0 mi SSE 13.8 mph 19.6 mph N/A   Clear
10:15 AM 39.7 °F 31.2 °F 19.6 °F 44% 30.28 in 10.0 mi SSE 16.1 mph 23.0 mph N/A   Clear
10:35 AM 40.3 °F 33.4 °F 19.8 °F 44% 30.28 in 10.0 mi SSE 11.5 mph 17.3 mph N/A   Scattered Clouds
10:55 AM 41.0 °F 34.7 °F 20.1 °F 43% 30.27 in 10.0 mi SSE 10.4 mph 18.4 mph N/A   Mostly Cloudy
11:15 AM 41.9 °F 34.6 °F 20.3 °F 42% 30.27 in 10.0 mi SSE 13.8 mph 18.4 mph N/A   Overcast
11:35 AM 43.0 °F 37.7 °F 21.0 °F 42% 30.25 in 10.0 mi SE 9.2 mph 20.7 mph N/A   Scattered Clouds
11:55 AM 44.1 °F 37.4 °F 19.9 °F 38% 30.25 in 10.0 mi SSE 13.8 mph 21.9 mph N/A   Clear
12:15 PM 45.1 °F 39.5 °F 19.9 °F 37% 30.23 in 10.0 mi SSE 11.5 mph 20.7 mph N/A   Clear
12:35 PM 46.2 °F 39.8 °F 19.6 °F 35% 30.22 in 10.0 mi SSE 15.0 mph 24.2 mph N/A   Scattered Clouds
12:55 PM 46.6 °F - 19.6 °F 34% 30.20 in 10.0 mi SE 16.1 mph 19.6 mph N/A   Scattered Clouds
1:15 PM 47.3 °F - 20.1 °F 34% 30.20 in 10.0 mi SSE 11.5 mph 20.7 mph N/A   Clear
1:35 PM 48.4 °F - 19.9 °F 32% 30.18 in 10.0 mi South 15.0 mph 26.5 mph N/A   Clear
1:55 PM 49.1 °F - 21.0 °F 33% 30.17 in 10.0 mi SSE 12.7 mph 26.5 mph N/A   Clear
2:15 PM 50.0 °F - 21.9 °F 33% 30.16 in 10.0 mi South 13.8 mph 19.6 mph N/A   Clear
2:35 PM 50.9 °F - 22.5 °F 33% 30.15 in 10.0 mi SSE 11.5 mph 21.9 mph N/A   Clear
2:55 PM 50.5 °F - 23.0 °F 34% 30.14 in 10.0 mi South 16.1 mph 23.0 mph N/A   Clear
3:15 PM 51.8 °F - 23.4 °F 33% 30.13 in 10.0 mi South 12.7 mph 21.9 mph N/A   Clear
3:35 PM 52.9 °F - 23.9 °F 32% 30.12 in 10.0 mi SSE 17.3 mph 24.2 mph N/A   Clear
3:55 PM 52.9 °F - 24.6 °F 33% 30.11 in 10.0 mi South 12.7 mph 27.6 mph N/A   Clear
4:15 PM 53.2 °F - 25.2 °F 34% 30.10 in 10.0 mi South 11.5 mph 20.7 mph N/A   Clear
4:35 PM 53.1 °F - 25.5 °F 34% 30.09 in 10.0 mi SSE 12.7 mph 20.7 mph N/A   Clear
5:15 PM 52.0 °F - 27.3 °F 39% 30.10 in 10.0 mi South 6.9 mph 21.9 mph N/A   Mostly Cloudy
5:35 PM 51.3 °F - 28.2 °F 41% 30.11 in 10.0 mi South 9.2 mph - N/A   Overcast
5:55 PM 50.9 °F - 29.1 °F 43% 30.13 in 10.0 mi SSW 8.1 mph - N/A   Overcast
6:15 PM 50.4 °F - 30.2 °F 46% 30.13 in 10.0 mi South 8.1 mph - N/A Rain Light Rain
6:35 PM 49.3 °F - 31.5 °F 50% 30.12 in 10.0 mi South 6.9 mph - N/A Rain Rain
6:55 PM 46.4 °F 42.9 °F 34.3 °F 63% 30.12 in 10.0 mi South 6.9 mph - N/A Rain Light Rain
7:15 PM 46.6 °F - 33.4 °F 60% 30.11 in 10.0 mi SSE 9.2 mph - N/A Rain Light Rain
7:35 PM 46.6 °F - 33.3 °F 60% 30.10 in 10.0 mi SSE 8.1 mph - N/A Rain Light Rain
7:55 PM 46.4 °F 43.5 °F 33.1 °F 60% 30.10 in 10.0 mi South 5.8 mph - N/A Rain Light Rain
8:15 PM 45.9 °F 42.9 °F 33.3 °F 61% 30.10 in 10.0 mi South 5.8 mph - N/A Rain Light Rain
8:35 PM 45.9 °F 43.6 °F 33.4 °F 62% 30.10 in 10.0 mi SSE 4.6 mph - N/A   Mostly Cloudy
8:55 PM 44.8 °F 41.6 °F 34.9 °F 68% 30.10 in 10.0 mi SSE 5.8 mph - N/A Rain Light Rain
9:15 PM 44.1 °F 40.8 °F 35.6 °F 72% 30.10 in 10.0 mi South 5.8 mph - 0.01 in Rain Light Rain
9:35 PM 44.6 °F 41.4 °F 35.1 °F 69% 30.10 in 10.0 mi South 5.8 mph - 0.01 in   Light Drizzle
9:55 PM 45.1 °F 41.4 °F 35.2 °F 68% 30.10 in 10.0 mi South 6.9 mph - 0.01 in   Overcast
10:15 PM 45.0 °F 41.8 °F 35.1 °F 68% 30.10 in 10.0 mi SSE 5.8 mph - N/A   Overcast
10:35 PM 44.8 °F 41.6 °F 35.2 °F 69% 30.10 in 10.0 mi SSE 5.8 mph - N/A   Overcast
10:55 PM 44.6 °F 40.2 °F 35.4 °F 70% 30.09 in 10.0 mi SSE 8.1 mph - N/A   Overcast
11:15 PM 44.6 °F 40.7 °F 35.2 °F 70% 30.09 in 10.0 mi SSE 6.9 mph - N/A   Light Drizzle
11:35 PM 44.6 °F 40.7 °F 35.1 °F 69% 30.08 in 10.0 mi SSE 6.9 mph - N/A   Mostly Cloudy
11:55 PM 44.4 °F 42.0 °F 34.9 °F 69% 30.07 in 10.0 mi SSE 4.6 mph - N/A   Mostly Cloudy